Regional Weather Roundup
Issued by NWS Columbia, SC

Current Version | Previous Version | Text Only | Print | Product List | Glossary On
Versions: 1 2 3 4 5 6 7 8 9 10 11 12 13 14 15 16 17 18 19 20 21 22 23 24 25 26 27 28 29 30 31 32 33 34 35 36 37 38 39 40 41 42 43 44 45 46 47 48 49 50
000
ASUS42 KCAE 051410
RWRCAE
REGIONAL WEATHER ROUNDUP
NATIONAL WEATHER SERVICE COLUMBIA SC
900 AM EST THU MAR 05 2015

NOTE: "FAIR" INDICATES FEW OR NO CLOUDS BELOW 12,000 FEET WITH NO
SIGNIFICANT WEATHER AND/OR OBSTRUCTIONS TO VISIBILITY.

NOT ALL STATIONS ARE QUALITY CONTROLLED BY THE NATIONAL
WEATHER SERVICE. USE DATA WITH CAUTION...ESPECIALLY
DEWPOINT OBSERVATIONS.

SCZ001>056-GAZ040-063>065-077-051500-
...UPSTATE SOUTH CAROLINA...

CITY           SKY/WX    TMP DP  RH WIND       PRES   REMARKS
ANDERSON       CLOUDY    66  63  90 SW17      29.88R
LIBERTY        LGT RAIN  64  64 100 MISG      29.86R
SPARTANBURG    HVY RAIN  66 N/A N/A SW8       29.86S
CLEMSON        LGT RAIN  67  62  84 SW9       29.87R
GREENVILLE     CLOUDY    65  62  90 SW16G23   29.87R
GREENWOOD      LGT RAIN  67  63  87 SW21      29.92R
GREER          CLOUDY    65  63  93 SW15      29.85R
ROCK HILL      LGT RAIN  65  63  93 SW14G23   29.88S FOG
CHESTER        CLOUDY    70  64  83 SW12G20   29.89S
LAURENS        CLOUDY    64  64 100 SW16G24   29.89R


...CENTRAL SOUTH CAROLINA...

CITY           SKY/WX    TMP DP  RH WIND       PRES   REMARKS
COLUMBIA APT   CLOUDY    71  62  73 SW15G28   29.94R
COLUMBIA OWENS CLOUDY    70  62  76 SW12G21   29.96S
DARLINGTON     CLOUDY    66  61  82 SW18      29.95R
FLORENCE       CLOUDY    67  62  84 SW16G24   29.96R
MCENTIRE ANGB  PTSUNNY   70  63  79 S14       29.96R
ORANGEBURG     CLOUDY    68  62  81 SW14      29.98S
SUMTER SHAW    CLOUDY    69  63  81 S17G23    29.95R
NEWBERRY       CLOUDY    66  63  88 SW16G31   29.94R
AIKEN          CLOUDY    68  64  88 S10G17    29.99S
BARNWELL       PTSUNNY   70  64  83 SW8       29.99S
MANNING        CLOUDY    68  68 100 SW9       30.00R
CAMDEN         CLOUDY    68  63  83 S9        29.95R
LANCASTER      PTSUNNY   66  66 100 SW15      29.90S
WINNSBORO      PTSUNNY   68  63  83 SW13G18   29.93R


...EASTERN AND COASTAL SOUTH CAROLINA...

CITY           SKY/WX    TMP DP  RH WIND       PRES   REMARKS
MYRTLE BEACH   SUNNY     64  59  82 S14       30.01S
N MYRTLE BCH   FOG       57  56  96 SW16      30.00R VSB 1/2
CONWAY         FAIR      68  64  88 SW14G21   29.99S FOG
MARION         CLOUDY    64  63  94 SW9       29.98R
HARTSVILLE     CLOUDY    68  61  77 SW12G24   29.94S
FLORENCE       CLOUDY    67  62  84 SW16G24   29.96R
DARLINGTON     CLOUDY    66  61  82 SW18      29.95R
CHARLESTON APT MOSUNNY   68  64  87 SW16      30.02S
MOUNT PLEASANT CLOUDY    66  64  94 S14G20    30.03S
WALTERBORO     CLOUDY    70  66  88 SW9       30.01S
BEAUFORT       PTSUNNY   71  64  78 S12G22    30.01S


...EASTERN GEORGIA...

CITY           SKY/WX    TMP DP  RH WIND       PRES   REMARKS
AUGUSTA BUSH F CLOUDY    70  63  78 S15       29.95S
AUGUSTA DANIEL CLOUDY    70  63  78 S14G22    29.96R
THOMSON        CLOUDY    73  67  83 S9G17     29.97S
WASHINGTON     DRIZZLE   68 N/A N/A SW9       29.92R
CLAXTON        FAIR      72  66  83 SW5       30.02R
SYLVANIA       CLOUDY    70  66  88 SW7       30.01S
STATESBORO     CLOUDY    71  70  96 SW14G22   30.01R
SAVANNAH       MOSUNNY   72  64  76 SW14      30.02F


...SOUTHERN NORTH CAROLINA...

CITY           SKY/WX    TMP DP  RH WIND       PRES   REMARKS
CHARLOTTE      LGT RAIN  65  62  90 S15G26    29.87R
MONROE         CLOUDY    67  61  81 SW13      29.88S
WADESBORO      CLOUDY    68  62  79 S9G16     29.89F
ROCKINGHAM       N/A     66  62  84 S8        29.91S
RUTHERFORDTON  CLOUDY    64  64  99 SW6G18    29.85R
ASHEVILLE      CLOUDY    44  37  76 N14G23    29.90S

$$



USA.gov is the U.S. government's official web portal to all federal, state and local government web resources and services.